A/2019 Q1

Japanese version
Home page
Updated on December 24, 2019

---------------------------------------------------------------------

* Profile

Discovery Date August 28, 2019
Magnitude 20.6 mag
Discoverer Mt. Lemmon Survey

* Orbital Elements

Epoch 2020 July 10.0 TT = JDT 2459040.5
T 2020 July 19.69279 TT                                 Williams
q   4.9971398            (2000.0)            P               Q
z  -0.0002023      Peri.   55.92362     +0.92268298     -0.26827145
 +/-0.0000631      Node    42.33805     -0.30130354     -0.94984338
e   1.0010108      Incl.  155.72175     +0.24056661     -0.16071088
H   12.5
From 112 observations 2019 Aug. 28-Dec. 3, mean residual 0".4.

* Magnitudes Graph

        H = 12.5  G = 0.15

---------------------------------------------------------------------

The orbital elements are published on M.P.E.C. 2019-X94.
The magnitudes graphs are made with Comet for Windows.

---------------------------------------------------------------------

Copyright(C) Seiichi Yoshida (comet@aerith.net). All rights reserved.